Regional Weather Roundup
Issued by NWS

Home | Current Version | Previous Version | Graphics & Text | Print | Product List | Glossary Off
Versions: 1 2 3 4 5 6 7 8 9 10 11 12 13 14 15 16 17 18 19 20 21 22 23 24 25 26 27 28 29 30 31 32 33 34 35 36 37 38 39 40 41 42 43 44 45 46 47 48 49 50

000
ASUS43 KTOP 250908
RWRKS

WEATHER ROUNDUP FOR KANSAS
NATIONAL WEATHER SERVICE GOODLAND KS
400 AM CDT FRI JUL 25 2014

NOTE:  "FAIR" INDICATES FEW OR NO CLOUDS BELOW 12,000 FEET WITH NO
SIGNIFICANT WEATHER AND/OR OBSTRUCTIONS TO VISIBILITY.

KSZ001>006-013>018-027>032-041>047-251000-
NORTHWEST KANSAS

CITY           SKY/WX    TMP DP  RH WIND       PRES   REMARKS
GOODLAND       CLOUDY    78  54  43 S13       29.90F
HAYS           PTCLDY    70  64  83 S13       29.88S
HILL CITY      MOCLDY    83  63  50 SW12      29.84F
RUSSELL        CLEAR     79  67  66 S18G28    29.85F
$$

KSZ061>065-074>080-084>089-251000-
SOUTHWEST KANSAS

CITY           SKY/WX    TMP DP  RH WIND       PRES   REMARKS
DODGE CITY     CLEAR     77  64  64 S14G22    29.94F
ELKHART          N/A     77  57  50 S13         N/A
GARDEN CITY    PTCLDY    76  62  62 S14       29.94S
GREAT BEND     CLEAR     79  66  65 S20       29.87F
LIBERAL        CLEAR     79  61  53 S14       29.99S
PRATT          CLEAR     73  68  83 S16       29.93F
$$

KSZ066>073-081>083-090>101-251000-
SOUTHEAST KANSAS

CITY           SKY/WX    TMP DP  RH WIND       PRES   REMARKS
CHANUTE        PTCLDY    73  70  90 SE8       29.95S
COFFEYVILLE    PTCLDY    73  71  93 S8        29.95F
HUTCHINSON     CLEAR     78  68  71 S16       29.91S
MEDICINE LODGE   N/A     76  70  82 SE5       29.93S
NEWTON         PTCLDY    75  64  69 S16G22    29.95F
PARSONS        PTCLDY    73  69  87 S5        29.97S
WICHITA INTL   PTCLDY    75  70  84 S12       29.93F
WICHITA JABRA  PTCLDY    76  70  82 S15       29.93F
WICHITA MCCONL PTCLDY    76  74  91 S18G24    29.94F
WINFIELD       MOCLDY    76  71  85 S15       29.96F
$$

KSZ007>012-019>026-033>040-048>060-102>105-251000-
NORTHEAST KANSAS

CITY           SKY/WX    TMP DP  RH WIND       PRES   REMARKS
CONCORDIA      CLOUDY    79  71  76 S21G31    29.83F
EMPORIA        CLOUDY    75  70  84 S15       29.90F
LAWRENCE       MOCLDY    74  63  68 S6        29.88F
MANHATTAN      CLOUDY    80  70  71 SW15G24   29.85F
MARYSVILLE     CLOUDY    77  70  78 S12G18    29.83F
OLATHE IND     PTCLDY    70  60  70 S9        29.91F
OLATHE EXE     PTCLDY    70  60  70 S9        29.90F
SALINA         PTCLDY    80  70  71 S17G25    29.87S
TOPEKA BILLARD CLOUDY    76  67  73 S5        29.87F
TOPEKA FORBES  CLOUDY    75  67  76 S13       29.87F
$$



USA.gov is the U.S. government's official web portal to all federal, state and local government web resources and services.